COSMOS 1992

Satellite information

Favourite Embed

Satellite Type and Status

PAYLOADIN ORBIT

Key statistics

Satellite COSMOS 1992 at a glance.

Uptime

13249

Days in orbit

Revolutions

≈ 14.4

Per day

Orbit

LEO

Low Earth Orbit

Inclination

74.0

Latest

Satellite identification and parameters

Extended collection of information and parameters for COSMOS 1992.

Object identification

Identified? True

Debris? False

Object name: COSMOS 1992

International designator: 1989-005A

Object number (NORAD): 19769

Object ID (CCSDS): 19769

Country: COMMONWEALTH OF INDEPENDENT STATES (CIS)

Current information (Y/N): Y

RCS size: LARGE

Orbital parameters

Period: 100.301 minutes

Inclination: 74.0454 deg

SMA: 7150.967 km

Apoapsis: 789.118 km

Periapsis: 756.546 km

RAAN: 275.4378 deg

Eccentricy: 0.0022774

Argument of periapsis: 223.7541 deg

Mean anomaly: 136.1808 deg

Mean motion: 14.35673221 rev/day

Mean motion (dot): 0.0000027 rev/day2

B* drag term: 0.00010234 1/REarth

Two-line elements (TLE)

Creation date: May 6, 2025, 3:54 a.m.

Reference frame: TEME

Reference center: EARTH

Epoch: May 5, 2025, 8:25 p.m. UTC

TLE line 0: 0 COSMOS 1992

TLE line 1: 1 19769U 89005A 25125.85118055 .00000270 00000-0 10234-3 0 9994

TLE line 2: 2 19769 74.0454 275.4378 0022774 223.7541 136.1808 14.35673221898387

Live tracking on map

Real-time ground track for satellite COSMOS 1992.

In-orbit conjunctions

A list of the most updated potential collisions computed for object COSMOS 1992.

Target Orbit TCA Probability of collision Miss distance Type
COSMOS 1867 COOLANT LEO 2025-04-19 19:46:25 0.0008016404 363.0 (m) DEBRIS
FENGYUN 1C DEB SSO 2025-03-25 21:26:15 0.000192273 285.0 (m) DEBRIS
CZ-6A DEB LEO 2024-12-24 18:11:48 0.0001433178 908.0 (m) DEBRIS
CZ-6A DEB SSO 2024-11-29 02:33:44 0.0001214428 889.0 (m) DEBRIS
FENGYUN 1C DEB SSO 2024-11-11 21:23:45 0.0004260318 771.0 (m) DEBRIS

Associated space launch

Military communications satellite

COSMOS 1992 was lifted into orbit during the mission ‘Kosmos-3M | Strela-2M 46’, on board a Kosmos-3M space rocket.

The launch took place on Jan. 26, 1989, 3:36 p.m. from 132/2.

For more information about the launch, click the button.

Launch to space Kosmos-3M | Strela-2M 46
Kosmos-3M | Strela-2M 46

Agency: N/A

Status: Launch Successful

Launch date: Jan. 26, 1989, 3:36 p.m. UTC

Rocket: Kosmos-3M

Launch pad: 132/2

Location: Plesetsk Cosmodrome, Russian Federation

...

Latest news about this satellite

There are no fresh news available about this satellite. Check back as we update our databases every day.


Newsletter sign-up

Weekly statistics, charts and insights to help you stay on top of the space industry.